Temp
11 12 12 12 12 12 13 13 13 13 13 14 14 14 14 14 15 15 15 15 15 15 16 15 16 16 16 14 15 17 18 17 20 18 16 15 15 14 13 13 12 11 13 12 11
11 11 11 12 12 12 12 12 13 13 13 13 13 14 14 14 15 15 15 15 15 16 16 16 16 15 15 16 18 19 20 20 19 18 17 16 15 14 14 13 12 10 11 12 11
11 11 11 11 12 12 12 12 12 12 13 13 13 13 14 14 15 15 16 16 16 16 16 16 15 15 16 17 19 19 20 19 18 18 17 16 15 15 14 14 12 11 11 12 11
11 11 11 11 12 12 12 12 12 12 12 13 13 13 13 13 14 13 15 15 16 16 16 16 15 15 16 18 19 19 19 19 18 17 17 16 15 16 15 14 12 10 10 10 10
11 11 11 11 11 12 12 12 12 12 12 12 13 13 13 13 15 13 14 15 16 16 16 16 15 15 17 18 19 19 19 19 18 17 17 16 16 15 14 13 12 10 10 10 10
11 11 11 11 11 11 12 12 12 12 12 12 12 13 13 14 13 12 14 15 15 16 16 16 15 16 17 18 19 20 19 19 18 17 17 17 16 15 14 13 11 10 10 10 10
11 11 11 11 11 12 11 12 12 12 12 12 12 12 13 15 12 12 13 15 15 16 16 16 15 16 17 18 19 19 19 19 18 17 17 17 16 15 14 13 12 11 11 11 11
11 11 12 12 12 12 12 12 12 12 12 12 12 12 14 13 13 13 13 12 15 16 16 14 14 15 17 18 19 19 20 19 19 18 17 17 16 15 14 13 12 11 11 11 11
11 11 11 12 12 12 12 12 12 12 12 12 12 12 14 13 14 13 13 12 13 15 16 14 14 15 16 17 19 19 20 19 18 18 17 17 15 15 14 14 13 12 11 11 11
11 11 11 12 12 12 12 12 12 12 12 12 12 12 14 14 14 14 12 12 13 13 13 14 14 15 16 17 19 20 20 19 18 19 18 17 16 15 15 14 13 13 12 11 11
11 11 11 11 11 12 12 12 11 11 12 13 12 12 13 14 13 12 12 12 13 13 14 14 15 16 17 18 19 21 19 18 19 19 19 18 17 16 16 16 15 14 13 12 12
9 10 11 11 11 11 11 10 12 11 12 13 13 13 13 13 13 13 13 13 13 14 14 15 16 17 17 18 19 20 20 19 19 18 20 20 18 17 17 17 16 15 14 13 13
7 8 9 9 10 10 10 10 10 10 11 14 14 14 14 13 13 13 13 13 14 14 15 16 16 17 18 19 19 20 21 21 20 20 20 20 20 19 18 17 17 16 15 14 14
6 7 8 8 9 9 8 11 10 10 9 14 15 15 12 13 13 14 13 14 14 15 16 16 17 18 18 19 19 20 21 21 21 20 20 20 21 20 20 18 18 17 16 15 15
5 6 6 7 7 8 9 9 9 9 12 17 14 14 14 13 14 14 14 14 15 15 16 17 17 18 18 19 19 20 21 21 21 21 21 21 20 21 20 20 18 18 17 16 15
4 4 5 5 6 6 7 8 8 7 13 16 15 14 14 13 14 15 14 14 14 15 16 17 17 18 19 19 19 20 20 21 21 21 22 21 21 22 21 21 20 19 18 17 17
3 3 4 5 5 7 7 6 7 10 16 17 15 14 14 14 14 15 14 14 14 15 16 17 17 18 18 19 19 20 20 21 21 22 22 22 22 22 22 22 21 20 19 18 17
3 3 3 4 4 5 5 5 7 13 14 18 17 15 15 15 15 15 15 15 14 15 16 17 17 18 18 18 19 20 20 21 20 21 22 22 22 22 22 21 21 20 19 19 18
1 2 3 3 4 4 4 4 8 11 15 16 17 17 16 16 16 15 16 15 15 15 16 18 18 18 18 19 19 20 20 20 21 22 22 22 22 22 22 22 21 21 20 19 18
0 1 2 2 0 3 2 3 7 11 13 13 15 17 17 17 16 16 17 16 16 16 16 17 19 19 18 18 18 19 19 20 21 20 21 22 23 22 22 21 21 21 21 20 19
-1 -1 0 -0 1 -0 1 3 5 10 9 9 12 14 16 18 17 17 17 17 16 16 16 17 18 19 19 18 18 19 19 20 20 21 22 22 23 22 22 21 21 20 21 21 20
-2 -2 -1 -1 -1 1 2 2 4 6 7 9 10 11 12 13 15 18 18 17 17 17 17 17 17 18 20 19 19 19 19 20 21 20 21 21 22 23 22 21 21 21 21 21 21
-4 -3 -1 -1 -0 1 2 3 4 5 6 8 9 10 10 11 13 15 17 18 18 17 17 17 17 18 19 20 19 19 19 20 20 20 21 21 21 22 22 22 21 21 21 20 20
-5 -4 -0 -1 -0 0 2 4 5 6 6 7 7 8 9 10 11 12 14 16 18 18 18 17 17 17 19 19 20 19 19 19 20 20 20 20 21 21 21 21 21 20 20 20 20
-7 -5 -5 -4 -2 -1 1 2 3 4 5 5 6 6 7 9 10 12 13 15 16 16 16 16 17 18 18 19 19 20 19 19 19 20 20 20 20 21 21 21 21 20 20 20 19
-7 -7 -5 -5 -4 -3 -1 0 0 1 3 5 5 6 7 7 9 10 11 13 14 15 15 16 16 16 17 18 18 19 20 19 19 19 19 20 20 20 21 21 21 20 20 19 19
-7 -7 -6 -5 -4 -2 -1 -0 1 1 2 2 3 3 4 5 5 7 7 9 9 11 12 15 15 16 17 17 18 18 19 20 19 19 19 19 20 20 20 20 20 20 20 20 19
Height
3170 3170 3169 3168 3168 3167 3167 3167 3166 3166 3166 3166 3165 3164 3164 3163 3164 3165 3168 3171 3171 3174 3175 3175 3176 3175 3173 3173 3174 3177 3179 3175 3169 3170 3176 3177 3178 3178 3177 3180 3182 3177 3177 3181 3184
3167 3166 3165 3165 3164 3164 3163 3163 3163 3162 3162 3162 3161 3160 3160 3159 3159 3159 3164 3165 3168 3172 3173 3175 3175 3176 3174 3175 3176 3177 3174 3173 3171 3174 3177 3179 3179 3180 3182 3183 3185 3179 3180 3183 3186
3163 3163 3162 3161 3161 3160 3160 3160 3160 3159 3159 3158 3157 3157 3156 3155 3155 3154 3157 3161 3164 3169 3171 3173 3175 3180 3179 3175 3176 3176 3175 3173 3175 3177 3179 3180 3181 3183 3183 3185 3183 3180 3180 3184 3187
3159 3158 3158 3157 3157 3156 3156 3156 3156 3156 3155 3155 3154 3153 3153 3152 3157 3151 3153 3157 3161 3165 3169 3171 3174 3178 3177 3175 3178 3176 3177 3175 3177 3179 3180 3181 3183 3185 3185 3185 3185 3184 3182 3186 3188
3154 3154 3153 3152 3152 3152 3152 3152 3152 3152 3152 3151 3151 3150 3149 3148 3149 3148 3150 3153 3156 3161 3166 3169 3173 3177 3176 3175 3178 3176 3176 3177 3179 3181 3181 3183 3185 3186 3186 3187 3186 3186 3188 3187 3190
3150 3149 3148 3147 3147 3147 3147 3147 3148 3148 3148 3147 3147 3146 3145 3144 3145 3145 3146 3149 3152 3157 3162 3166 3171 3176 3177 3176 3177 3177 3177 3178 3180 3182 3183 3184 3186 3186 3188 3187 3186 3187 3190 3194 3192
3146 3145 3144 3143 3142 3141 3141 3142 3143 3143 3143 3143 3142 3141 3140 3142 3143 3147 3143 3145 3149 3154 3159 3164 3170 3176 3178 3176 3176 3176 3177 3178 3179 3183 3185 3185 3187 3187 3188 3188 3188 3189 3191 3195 3198
3141 3140 3138 3138 3137 3137 3136 3136 3138 3138 3138 3138 3138 3136 3132 3137 3137 3139 3141 3143 3146 3151 3156 3162 3166 3172 3174 3174 3175 3173 3175 3175 3177 3181 3183 3185 3189 3187 3189 3189 3189 3190 3192 3195 3198
3136 3135 3133 3132 3133 3132 3132 3132 3132 3133 3133 3134 3135 3132 3130 3132 3132 3135 3139 3143 3146 3150 3154 3159 3165 3168 3172 3172 3171 3170 3169 3170 3178 3180 3180 3184 3186 3188 3188 3189 3189 3191 3192 3194 3196
3133 3130 3129 3128 3128 3127 3127 3127 3127 3128 3128 3129 3129 3132 3131 3129 3129 3132 3136 3141 3146 3149 3153 3156 3161 3164 3167 3169 3164 3163 3166 3170 3175 3179 3176 3177 3181 3182 3187 3187 3188 3189 3190 3191 3193
3127 3126 3124 3123 3123 3123 3124 3123 3125 3124 3121 3123 3126 3123 3127 3128 3131 3130 3133 3138 3145 3147 3149 3152 3157 3157 3161 3163 3161 3161 3160 3169 3174 3177 3176 3172 3181 3180 3183 3183 3186 3187 3187 3189 3191
3120 3119 3119 3119 3119 3119 3118 3118 3117 3118 3114 3115 3116 3116 3120 3128 3128 3129 3133 3137 3140 3142 3148 3153 3147 3154 3159 3161 3161 3161 3162 3162 3167 3171 3175 3173 3172 3175 3178 3180 3181 3184 3185 3187 3189
3115 3113 3113 3113 3114 3114 3114 3113 3113 3112 3108 3105 3107 3108 3114 3123 3124 3126 3129 3133 3136 3141 3143 3143 3146 3154 3157 3157 3159 3157 3157 3159 3161 3170 3171 3171 3172 3175 3173 3178 3180 3181 3184 3185 3185
3110 3109 3108 3108 3111 3110 3109 3108 3110 3110 3106 3096 3096 3098 3107 3116 3118 3123 3125 3131 3135 3136 3140 3143 3147 3150 3153 3153 3156 3154 3155 3156 3161 3165 3166 3167 3165 3167 3171 3171 3176 3178 3180 3183 3184
3103 3102 3104 3101 3103 3105 3103 3106 3108 3109 3109 3093 3094 3097 3099 3104 3112 3113 3122 3126 3128 3132 3138 3136 3140 3143 3146 3150 3153 3153 3153 3156 3157 3157 3160 3160 3165 3162 3165 3167 3168 3173 3177 3180 3181
3096 3095 3097 3097 3098 3099 3100 3103 3106 3112 3098 3091 3090 3093 3097 3101 3106 3112 3117 3122 3127 3129 3131 3133 3137 3139 3142 3147 3150 3153 3154 3153 3153 3154 3154 3155 3159 3153 3156 3158 3162 3167 3171 3176 3179
3088 3088 3088 3090 3093 3094 3097 3100 3107 3097 3088 3086 3085 3090 3092 3096 3102 3107 3110 3113 3116 3122 3123 3128 3129 3134 3138 3141 3146 3148 3150 3150 3150 3147 3147 3150 3152 3152 3154 3154 3159 3162 3167 3172 3175
3081 3079 3081 3082 3085 3088 3092 3097 3093 3081 3081 3081 3083 3086 3088 3093 3096 3101 3104 3108 3112 3115 3119 3120 3123 3125 3129 3132 3138 3140 3143 3143 3144 3142 3143 3144 3145 3147 3151 3153 3157 3158 3162 3166 3171
3072 3072 3073 3075 3077 3081 3084 3083 3073 3077 3079 3081 3082 3081 3084 3088 3091 3095 3096 3100 3104 3107 3112 3113 3116 3121 3124 3129 3133 3135 3136 3142 3140 3139 3138 3137 3140 3145 3147 3150 3154 3158 3159 3161 3166
3065 3065 3068 3069 3072 3073 3073 3064 3068 3069 3077 3076 3074 3076 3076 3081 3085 3087 3089 3093 3098 3103 3108 3109 3111 3114 3119 3125 3127 3128 3137 3138 3135 3135 3135 3132 3132 3138 3142 3147 3151 3154 3159 3158 3161
3060 3059 3064 3064 3065 3064 3059 3061 3064 3061 3068 3073 3071 3070 3072 3075 3078 3079 3083 3090 3092 3097 3103 3106 3107 3107 3111 3112 3119 3125 3126 3128 3133 3134 3131 3131 3129 3131 3136 3141 3145 3150 3154 3156 3157
3055 3056 3062 3061 3062 3058 3056 3059 3062 3058 3065 3068 3069 3068 3068 3067 3068 3072 3074 3079 3085 3090 3092 3099 3103 3101 3102 3107 3113 3117 3120 3123 3124 3129 3128 3129 3127 3129 3129 3136 3140 3144 3148 3153 3156
3049 3048 3048 3055 3054 3053 3054 3054 3055 3057 3057 3062 3063 3065 3067 3066 3069 3064 3066 3073 3078 3082 3085 3093 3095 3099 3100 3101 3104 3109 3114 3117 3121 3125 3124 3129 3128 3128 3132 3134 3134 3139 3146 3147 3150
3047 3047 3049 3047 3050 3050 3048 3047 3048 3051 3052 3057 3058 3061 3062 3062 3065 3062 3062 3064 3072 3076 3077 3084 3088 3090 3089 3094 3097 3103 3109 3112 3116 3116 3120 3120 3126 3127 3130 3131 3135 3138 3142 3143 3146
3046 3043 3041 3040 3041 3042 3044 3046 3044 3043 3046 3048 3053 3055 3058 3059 3061 3061 3063 3062 3066 3069 3072 3077 3078 3084 3088 3089 3093 3094 3101 3106 3107 3110 3113 3118 3120 3124 3126 3130 3131 3134 3136 3141 3144
3044 3042 3038 3035 3039 3039 3040 3042 3043 3043 3044 3046 3051 3053 3056 3056 3059 3061 3060 3062 3062 3066 3069 3072 3074 3080 3082 3086 3088 3088 3092 3096 3101 3106 3108 3113 3113 3120 3124 3125 3128 3131 3133 3136 3139
3042 3041 3038 3034 3036 3038 3038 3038 3041 3042 3043 3044 3046 3044 3047 3049 3046 3045 3045 3046 3049 3054 3058 3066 3071 3076 3073 3082 3085 3084 3082 3086 3092 3098 3103 3105 3109 3115 3116 3120 3123 3126 3128 3130 3133
Wind_Speed
21 21 22 22 23 24 24 24 24 24 24 24 25 24 24 24 24 23 20 21 23 17 13 10 6 6 9 12 11 8 8 14 10 12 11 11 11 8 10 14 5 2 6 20 24
22 23 23 23 23 23 23 22 22 22 22 22 23 23 22 23 22 21 17 22 24 20 17 11 7 5 12 13 9 7 12 7 12 12 12 9 9 12 13 10 10 14 14 21 23
22 22 23 24 23 23 22 22 21 21 21 21 21 21 21 20 18 19 18 20 24 23 20 16 11 8 13 10 8 5 8 9 11 8 10 10 13 12 9 11 13 9 16 21 20
23 23 23 23 24 24 23 22 20 20 19 20 20 19 19 18 3 10 14 17 25 26 25 21 13 12 13 14 3 6 2 9 12 9 9 10 12 8 12 10 15 15 10 15 17
22 24 24 24 24 23 24 23 21 20 19 19 18 18 18 20 15 19 17 18 25 29 28 24 17 12 13 10 3 2 7 6 9 12 10 11 9 9 8 11 16 20 18 8 6
20 21 22 24 25 24 23 22 22 21 19 18 18 17 19 20 8 19 20 18 24 29 29 28 19 13 13 13 8 7 5 10 12 8 11 8 11 8 10 15 17 21 19 17 14
20 20 20 21 21 23 23 22 21 21 20 19 18 19 21 13 10 16 17 16 23 28 31 29 19 13 10 7 9 7 13 11 13 10 11 8 10 9 12 16 17 18 18 17 18
21 21 21 20 19 20 20 22 21 21 21 20 19 20 24 13 19 17 14 15 20 28 31 23 19 18 15 15 9 14 17 18 16 11 10 7 9 12 14 15 16 17 17 17 18
23 22 22 22 20 18 18 18 20 20 21 21 20 22 21 16 18 15 18 15 17 24 29 23 17 19 16 14 15 18 20 20 10 11 16 13 9 9 15 15 16 17 18 18 19
23 24 24 23 21 19 18 17 16 18 21 22 22 20 11 13 12 15 18 18 17 19 21 25 19 22 22 22 24 24 25 20 17 16 11 19 9 22 18 17 17 18 18 18 19
26 24 23 24 22 20 18 16 14 14 22 24 8 16 7 8 12 17 20 19 19 21 25 26 24 29 27 26 25 22 26 27 19 14 16 19 10 24 24 20 18 19 19 20 20
27 27 25 23 21 21 17 13 18 19 24 20 27 25 15 11 15 18 21 25 24 26 25 23 35 31 27 26 25 22 19 23 19 22 17 13 16 27 22 21 20 19 20 19 20
25 25 25 24 21 19 17 18 15 17 26 25 24 30 27 19 19 19 27 27 26 26 30 34 31 28 29 30 28 25 24 21 19 20 16 11 14 19 23 19 19 19 20 19 21
26 24 22 19 20 15 11 18 13 11 14 25 20 29 31 27 26 23 27 29 25 29 29 29 26 30 33 33 29 30 22 15 15 18 19 16 19 18 20 23 21 22 22 22 21
27 26 20 22 17 18 21 10 7 4 6 1 16 10 26 38 12 31 29 30 31 23 30 34 30 31 35 35 29 28 23 19 20 19 18 17 18 15 15 27 27 21 24 23 22
27 26 23 22 16 18 18 12 9 5 11 10 18 20 27 34 31 13 31 30 27 27 25 29 27 31 32 32 31 27 25 23 21 22 19 19 18 13 20 22 25 24 21 25 25
27 25 24 21 18 15 14 13 7 16 10 17 19 16 26 31 34 25 33 36 37 35 34 29 31 30 30 31 33 31 29 24 20 19 16 24 25 25 7 19 14 23 21 26 28
26 25 21 21 18 17 16 18 18 12 27 4 18 16 26 26 32 34 30 39 35 33 31 32 28 35 30 37 34 37 34 28 17 11 19 23 21 21 16 8 7 21 21 24 27
26 23 20 18 19 22 23 28 18 22 11 23 15 21 23 27 22 35 37 37 39 41 36 31 33 28 33 32 33 35 41 35 34 23 19 23 26 21 17 18 13 12 19 23 25
26 22 15 15 17 24 27 41 27 18 11 20 21 24 25 28 32 29 36 36 37 37 37 31 23 28 32 29 33 38 34 37 37 20 18 26 20 21 24 20 20 17 17 21 20
21 18 8 9 17 21 34 33 33 32 22 13 15 22 21 26 30 30 36 31 31 35 36 35 29 25 29 39 36 34 42 37 35 35 17 14 22 22 25 20 21 19 21 22 22
18 13 8 9 16 19 29 29 28 34 25 22 22 21 22 20 20 31 33 35 27 30 41 38 33 32 28 34 30 33 40 41 32 27 31 28 28 18 12 19 20 21 16 15 14
17 19 25 14 20 20 22 26 28 29 30 24 26 26 23 22 20 21 20 31 28 29 35 38 40 32 30 27 36 35 36 42 38 33 32 25 29 27 17 13 24 21 19 16 11
14 7 6 14 19 21 22 21 23 28 28 26 26 25 25 27 23 19 17 13 24 28 29 36 38 41 31 33 32 34 34 36 41 37 31 34 30 32 23 12 11 13 19 15 15
7 14 17 11 11 9 16 22 18 14 16 19 21 24 23 24 25 26 20 19 15 20 18 22 38 39 39 37 32 36 34 36 40 42 36 34 36 28 26 15 16 21 23 17 14
11 15 16 16 11 11 10 10 12 13 13 14 20 19 18 27 21 20 21 23 20 13 23 24 28 29 37 35 37 34 33 35 38 40 39 36 37 34 31 28 23 18 19 20 21
12 14 18 16 13 10 11 11 16 16 18 16 14 13 13 10 18 26 26 27 22 16 14 32 31 30 33 34 32 36 38 35 36 37 37 40 39 33 30 23 17 24 23 20 20
Wind_Direction
271 271 272 273 273 275 276 276 276 276 276 276 277 276 275 272 267 259 247 240 237 234 237 247 261 285 319 316 307 300 249 346 67 88 105 108 121 110 117 119 109 192 179 150 150
269 271 270 270 271 272 273 273 274 276 276 276 276 276 275 273 270 259 243 235 227 228 230 238 254 303 300 303 302 305 307 43 73 100 116 111 122 114 114 123 130 135 149 153 151
270 267 268 270 269 269 270 271 272 273 274 275 276 276 276 274 273 265 243 229 224 218 222 229 235 253 278 282 316 318 72 98 83 108 119 118 118 120 118 128 157 180 161 160 153
274 273 270 267 266 267 267 268 269 270 271 273 275 276 273 268 222 252 250 222 217 213 212 223 225 246 261 270 260 280 115 79 102 121 119 121 127 115 91 139 163 165 162 153 160
277 275 273 271 268 266 265 264 265 266 267 269 272 273 270 262 239 267 249 234 212 212 206 218 220 233 252 288 238 262 131 119 110 116 119 119 131 134 117 142 163 154 156 175 165
282 280 278 274 271 269 265 263 262 263 265 266 269 270 267 261 222 259 255 230 210 208 206 210 216 223 258 285 233 214 162 152 137 125 118 116 136 137 135 148 155 157 159 162 194
285 285 282 279 277 272 267 262 259 258 260 264 266 267 263 263 208 236 257 228 208 203 205 207 214 218 238 248 227 213 190 175 158 144 137 113 123 143 152 153 155 161 160 166 173
289 286 285 284 281 278 273 264 259 255 255 257 263 268 268 262 231 233 236 223 208 200 204 207 214 226 237 245 251 215 195 188 175 172 154 150 116 140 156 162 164 168 169 175 181
291 289 285 284 284 282 279 274 262 254 252 253 256 263 277 256 247 224 227 206 211 200 205 202 216 227 235 240 228 216 216 164 160 181 150 155 142 175 163 173 175 179 181 182 186
288 287 287 284 283 282 280 277 273 259 249 246 246 259 271 278 247 217 211 194 206 202 207 209 213 220 224 221 224 209 211 154 177 191 193 190 174 173 181 183 185 185 189 192 197
287 285 283 284 285 281 280 280 275 272 250 241 263 247 255 266 230 220 201 191 201 204 205 208 208 214 215 216 226 230 170 204 223 208 198 209 143 176 188 184 194 193 196 200 201
291 286 284 281 280 281 275 265 264 256 264 249 228 232 182 220 200 204 198 192 196 202 201 206 215 213 214 218 229 239 241 185 197 195 207 200 210 183 185 192 193 199 203 201 202
300 292 287 283 279 275 275 266 265 264 276 264 241 234 208 204 219 207 199 195 201 202 206 209 218 211 216 222 226 235 238 223 165 193 206 226 218 202 199 195 198 202 209 205 208
298 297 295 285 275 270 262 264 259 270 290 280 236 227 212 207 224 205 208 200 203 211 210 219 215 214 215 223 224 236 233 235 203 200 224 219 247 198 213 193 198 203 207 209 208
296 293 293 290 266 248 250 254 246 226 281 297 195 206 201 201 203 208 209 200 205 210 208 218 215 214 216 219 222 231 234 235 239 202 240 197 237 235 224 205 204 200 207 210 218
293 290 285 281 275 251 243 237 196 207 238 202 183 188 193 205 205 206 197 208 212 217 219 222 220 218 219 220 222 224 231 234 240 242 239 237 225 251 205 200 204 197 206 207 217
295 287 282 269 264 262 239 191 208 225 228 222 196 198 198 201 206 204 198 205 206 210 221 221 223 220 220 221 219 220 226 234 235 230 242 236 215 237 258 194 208 201 202 208 210
297 291 278 269 245 237 214 191 228 228 221 126 205 206 202 200 209 204 206 209 213 212 216 217 218 215 215 218 219 218 218 227 227 226 234 235 246 241 220 207 196 201 202 204 212
296 288 287 263 240 217 206 213 220 223 234 234 226 208 209 208 207 209 215 216 214 209 216 215 228 220 217 215 219 219 221 224 243 244 249 241 227 232 220 217 203 202 203 197 206
297 286 290 254 225 219 218 223 228 209 258 270 262 228 223 210 209 208 211 221 218 218 214 226 226 220 215 215 220 222 217 228 234 246 248 241 253 206 216 218 222 217 223 210 206
293 285 280 214 239 230 229 235 241 218 253 272 264 252 237 225 218 215 217 220 219 217 217 222 232 229 211 210 216 214 227 228 230 236 256 254 261 221 202 200 206 215 223 223 218
285 261 226 254 242 242 241 241 241 250 253 252 250 249 260 267 268 230 221 221 220 216 216 217 225 242 226 218 218 221 219 225 228 230 241 260 260 247 191 200 189 199 210 218 229
284 259 207 230 249 247 250 249 244 245 247 242 242 247 252 263 283 250 251 224 221 217 216 215 222 236 239 231 211 216 221 224 229 230 229 237 256 253 257 262 205 201 203 219 227
307 287 301 238 241 245 256 255 243 241 238 239 244 240 251 253 249 259 262 245 217 219 221 213 219 224 234 225 208 208 221 224 228 232 237 245 240 245 250 208 187 198 209 225 240
287 262 313 280 265 260 253 241 260 254 233 229 234 235 242 254 247 244 252 252 229 223 216 212 225 225 229 236 231 215 218 223 230 232 234 238 241 244 246 243 220 233 225 225 226
291 287 266 289 289 295 267 258 253 253 237 230 235 229 238 245 245 259 257 241 244 230 236 220 233 233 233 232 239 245 230 221 228 232 239 238 246 242 240 250 250 223 212 225 236
268 266 273 276 291 278 276 274 259 253 242 252 255 241 236 257 241 236 231 224 237 236 226 221 222 231 234 226 237 246 235 229 223 229 236 240 241 245 247 243 245 230 247 237 238